| time (UTC) | temp C | wind direction | speed KPH | gust KPH | rain 1hr cm | rain 24hr cm | rain mn cm | humidity % | barometer mb |
| 20260503210006 | 28 | 213 | 4.8 | 19.3 | 0.00 | 0.00 | 0.00 | 14 | 1010.0 |
| 20260503204513 | 29 | 223 | 8.0 | 24.1 | 0.00 | 0.00 | 0.00 | 14 | 1010.3 |
| 20260503203016 | 28 | 200 | 9.7 | 22.5 | 0.00 | 0.00 | 0.00 | 14 | 1010.6 |
| 20260503201520 | 28 | 221 | 8.0 | 16.1 | 0.00 | 0.00 | 0.00 | 17 | 1011.0 |
| 20260503200008 | 28 | 218 | 8.0 | 16.1 | 0.00 | 0.00 | 0.00 | 15 | 1011.2 |
| 20260503194508 | 28 | 279 | 11.3 | 24.1 | 0.00 | 0.00 | 0.00 | 17 | 1011.3 |
| 20260503193034 | 28 | 185 | 6.4 | 20.9 | 0.00 | 0.00 | 0.00 | 17 | 1011.6 |
| 20260503191522 | 28 | 217 | 12.9 | 24.1 | 0.00 | 0.00 | 0.00 | 16 | 1011.8 |
| 20260503190024 | 28 | 242 | 4.8 | 27.4 | 0.00 | 0.00 | 0.00 | 19 | 1012.1 |
| 20260503184512 | 28 | 233 | 6.4 | 30.6 | 0.00 | 0.00 | 0.00 | 17 | 1012.5 |
| 20260503183014 | 27 | 263 | 11.3 | 20.9 | 0.00 | 0.00 | 0.00 | 18 | 1012.9 |
| 20260503181520 | 27 | 254 | 6.4 | 25.7 | 0.00 | 0.00 | 0.00 | 19 | 1013.4 |
| 20260503180026 | 27 | 213 | 12.9 | 22.5 | 0.00 | 0.00 | 0.00 | 19 | 1013.7 |
| 20260503174531 | 26 | 261 | 8.0 | 24.1 | 0.00 | 0.00 | 0.00 | 21 | 1014.0 |
| 20260503173022 | 27 | 225 | 9.7 | 20.9 | 0.00 | 0.00 | 0.00 | 21 | 1014.5 |
| 20260503171522 | 26 | 243 | 8.0 | 20.9 | 0.00 | 0.00 | 0.00 | 23 | 1014.6 |
| 20260503081518 | 9 | 234 | 6.4 | 12.9 | 0.00 | 0.00 | 0.00 | 57 | 1017.6 |
| 20260503071522 | 10 | 212 | 3.2 | 8.0 | 0.00 | 0.00 | 0.00 | 55 | 1018.3 |
| 20260503054535 | 11 | 197 | 4.8 | 8.0 | 0.00 | 0.00 | 0.00 | 50 | 1018.7 |
| 20260503053024 | 11 | 190 | 4.8 | 11.3 | 0.00 | 0.00 | 0.00 | 48 | 1018.7 |
| 20260503051525 | 11 | 194 | 4.8 | 12.9 | 0.00 | 0.00 | 0.00 | 47 | 1018.7 |
| 20260503050023 | 12 | 194 | 6.4 | 16.1 | 0.00 | 0.00 | 0.00 | 46 | 1018.7 |
| 20260503044532 | 12 | 200 | 6.4 | 11.3 | 0.00 | 0.00 | 0.00 | 46 | 1018.6 |
| 20260503043024 | 12 | 187 | 6.4 | 12.9 | 0.00 | 0.00 | 0.00 | 46 | 1018.4 |
| 20260503041516 | 12 | 205 | 4.8 | 11.3 | 0.00 | 0.00 | 0.00 | 46 | 1018.5 |
| 20260503040027 | 12 | 190 | 4.8 | 11.3 | 0.00 | 0.00 | 0.00 | 46 | 1018.6 |
| 20260503034504 | 11 | 181 | 3.2 | 8.0 | 0.00 | 0.00 | 0.00 | 47 | 1018.7 |
| 20260503033008 | 12 | 179 | 3.2 | 6.4 | 0.00 | 0.00 | 0.00 | 44 | 1018.7 |
| 20260503031512 | 12 | 192 | 1.6 | 8.0 | 0.00 | 0.00 | 0.00 | 42 | 1018.5 |
| 20260503030016 | 13 | 207 | 3.2 | 6.4 | 0.00 | 0.00 | 0.00 | 42 | 1018.5 |
| 20260503024524 | 13 | 205 | 1.6 | 4.8 | 0.00 | 0.00 | 0.00 | 40 | 1018.3 |
| 20260503023008 | 14 | 194 | 1.6 | 4.8 | 0.00 | 0.00 | 0.00 | 39 | 1018.3 |
| 20260503021511 | 15 | 205 | 1.6 | 3.2 | 0.00 | 0.00 | 0.00 | 1018.1 | |
| 20260503020017 | 16 | 196 | 0.0 | 3.2 | 0.00 | 0.00 | 0.00 | 35 | 1018.3 |
| 20260503014522 | 17 | 186 | 0.0 | 3.2 | 0.00 | 0.00 | 0.00 | 33 | 1018.0 |
| 20260503013031 | 18 | 186 | 0.0 | 3.2 | 0.00 | 0.00 | 0.00 | 30 | 1018.0 |
| 20260503011509 | 20 | 186 | 0.0 | 3.2 | 0.00 | 0.00 | 0.00 | 28 | 1018.0 |
| 20260503010012 | 21 | 174 | 1.6 | 8.0 | 0.00 | 0.00 | 0.00 | 27 | 1018.0 |
| 20260503004518 | 21 | 165 | 3.2 | 8.0 | 0.00 | 0.00 | 0.00 | 26 | 1018.0 |
| 20260503003020 | 21 | 179 | 3.2 | 8.0 | 0.00 | 0.00 | 0.00 | 26 | 1018.0 |
| 20260503001524 | 22 | 188 | 3.2 | 11.3 | 0.00 | 0.00 | 0.00 | 24 | 1018.3 |
| 20260503000017 | 22 | 186 | 1.6 | 4.8 | 0.00 | 0.00 | 0.00 | 26 | 1018.3 |
| 20260502234516 | 22 | 169 | 6.4 | 12.9 | 0.00 | 0.00 | 0.00 | 25 | 1018.5 |
| 20260502233021 | 22 | 166 | 6.4 | 12.9 | 0.00 | 0.00 | 0.00 | 25 | 1018.6 |
| 20260502231523 | 22 | 186 | 3.2 | 9.7 | 0.00 | 0.00 | 0.00 | 26 | 1018.7 |
| 20260502230026 | 22 | 210 | 6.4 | 16.1 | 0.00 | 0.00 | 0.00 | 26 | 1018.8 |
| 20260502224528 | 22 | 187 | 8.0 | 12.9 | 0.00 | 0.00 | 0.00 | 25 | 1018.9 |
| 20260502223020 | 22 | 234 | 4.8 | 11.3 | 0.00 | 0.00 | 0.00 | 25 | 1019.1 |
| 20260502221505 | 23 | 169 | 3.2 | 9.7 | 0.00 | 0.00 | 0.00 | 24 | 1019.2 |
| 20260502220010 | 23 | 346 | 3.2 | 14.5 | 0.00 | 0.00 | 0.00 | 24 | 1019.3 |
| 20260502214504 | 23 | 305 | 4.8 | 14.5 | 0.00 | 0.00 | 0.00 | 22 | 1019.6 |
| 20260502213003 | 23 | 232 | 1.6 | 8.0 | 0.00 | 0.00 | 0.00 | 26 | 1019.9 |
| 20260502211513 | 22 | 209 | 3.2 | 12.9 | 0.00 | 0.00 | 0.00 | 29 | 1020.1 |